Location: Kott?ru
(16.6209°N, 80.6208°E)
Time: 16:56:11
(UTC+00:00)

Cosmos 1680 Rocket - Pass Details

Date: 18 September 2020
Orbit: 760 x 781 km, 74.1° (Epoch: 20 October)

Event Time Altitude Azimuth Distance (km) Brightness Sun altitude
Rises 14:00:09 0° 343° (NNW) 3,223 7.1 -20.7°
Reaches altitude 10° 14:02:31 10° 342° (NNW) 2,299 6.3 -21.3°
Maximum altitude 14:07:43 74° 258° (WSW) 799 3.6 -22.5°
Enters shadow 14:12:20 13° 174° (S) 2,075 5.6 -23.6°
